Hereford, TX

11:12 PM CDT on June 22, 2017 (GMT -0500)
Hereford Municipal

Weather History for KHRX - February, 2014

Change the Weather History Date:

Thursday, February 6, 2014

  Actual Average (KCVN) Record (KCVN)
Temperature  
Mean Temperature 12 °F -  
Max Temperature 22 °F 50 °F 77 °F (2015)
Min Temperature 3 °F 22 °F -7 °F (1933)
Degree Days  
Heating Degree Days 52    
Moisture  
Dew Point 6 °F    
Average Humidity 77    
Maximum Humidity 85    
Minimum Humidity 70    
Precipitation  
Precipitation 0.00 in - - ()
Sea Level Pressure  
Sea Level Pressure 30.25 in    
Wind  
Wind Speed 8 mph (SE)    
Max Wind Speed 16 mph    
Max Gust Speed 21 mph    
Visibility 9 miles    
Events Snow    
Averages and records for this station are not official NWS values.
T = Trace of Precipitation, MM = Missing Value Source: NWS Daily Summary

Daily Weather History Graph

Daily Weather History Graph

Search for Another Location

Airport or City:

Trip Planner

Search our weather history database for the weather conditions in past years. The results will help you decide how hot, cold, wet, or windy it might be!

Date:

Astronomy

Feb. 06, 2014 Rise Set
Actual Time 7:43 AM CST 6:23 PM CST
Civil Twilight 7:17 AM CST 6:49 PM CST
Nautical Twilight 6:47 AM CST 7:19 PM CST
Astronomical Twilight 6:17 AM CST 7:49 PM CST
Moon 11:57 AM CST (2/6) 1:01 AM CST (2/6)
Length of Visible Light 11h 32m
Length of Day
10h 39m
Waxing Crescent, 49% of the Moon is Illuminated
Feb 6
Waxing Crescent
Feb 6
First Quarter
Feb 14
Full
Feb 22
Last Quarter
Mar 1
New

Hourly Weather History & Observations

Time (CST) Temp. Windchill Dew Point Humidity Pressure Visibility Wind Dir Wind Speed Gust Speed Precip Events Conditions
12:15 AM 5.0 °F -8.1 °F 0.1 °F 80% 30.40 in 7.0 mi NNE 8.1 mph - N/A Snow Light Snow
12:35 AM 5.0 °F -9.1 °F -0.0 °F 80% 30.39 in 10.0 mi NNE 9.2 mph - N/A Snow Light Snow
12:55 AM 4.8 °F -9.3 °F -0.8 °F 78% 30.38 in 10.0 mi NNE 9.2 mph - N/A Snow Light Snow
1:15 AM 4.8 °F -9.3 °F -0.4 °F 79% 30.39 in 4.0 mi NNE 9.2 mph - N/A Snow Light Snow
1:35 AM 4.5 °F -8.7 °F -0.9 °F 78% 30.40 in 4.0 mi NNE 8.1 mph - N/A Snow Light Snow
1:55 AM 4.1 °F -9.2 °F -1.3 °F 78% 30.38 in 10.0 mi NNE 8.1 mph - N/A   Overcast
2:15 AM 3.7 °F -7.1 °F -1.3 °F 80% 30.37 in 10.0 mi NE 5.8 mph - N/A   Overcast
2:35 AM 3.7 °F -7.1 °F -1.1 °F 80% 30.37 in 10.0 mi NNE 5.8 mph - N/A   Overcast
2:55 AM 3.9 °F -9.4 °F -1.3 °F 79% 30.37 in 10.0 mi NNE 8.1 mph - N/A   Mostly Cloudy
3:15 AM 3.7 °F -10.6 °F -1.8 °F 78% 30.36 in 10.0 mi NNE 9.2 mph - N/A   Scattered Clouds
3:35 AM 3.6 °F -7.3 °F -1.7 °F 79% 30.35 in 10.0 mi NE 5.8 mph - N/A   Mostly Cloudy
3:55 AM 3.7 °F -5.5 °F -1.3 °F 80% 30.35 in 10.0 mi NE 4.6 mph - N/A   Overcast
4:15 AM 4.1 °F -8.0 °F -1.3 °F 78% 30.35 in 10.0 mi NNE 6.9 mph - N/A   Overcast
4:35 AM 4.1 °F -10.2 °F -1.3 °F 78% 30.34 in 10.0 mi NNE 9.2 mph - N/A   Overcast
4:55 AM 4.1 °F -9.2 °F -2.0 °F 76% 30.33 in 10.0 mi NE 8.1 mph - N/A   Overcast
5:15 AM 4.1 °F -10.2 °F -1.5 °F 78% 30.33 in 10.0 mi NE 9.2 mph - N/A   Overcast
5:35 AM 4.1 °F -6.7 °F -1.3 °F 78% 30.34 in 10.0 mi NE 5.8 mph - N/A   Overcast
5:55 AM 4.1 °F -6.7 °F -1.8 °F 76% 30.35 in 10.0 mi NE 5.8 mph - N/A   Overcast
6:15 AM 4.1 °F -6.7 °F -1.3 °F 78% 30.35 in 10.0 mi NE 5.8 mph - N/A   Overcast
6:35 AM 4.3 °F -2.9 °F -1.3 °F 78% 30.35 in 10.0 mi NE 3.5 mph - N/A Snow Light Snow
6:55 AM 4.6 °F -4.5 °F -1.1 °F 77% 30.35 in 10.0 mi East 4.6 mph - N/A Snow Light Snow
7:15 AM 4.5 °F -4.7 °F -1.3 °F 77% 30.35 in 10.0 mi East 4.6 mph - N/A   Overcast
7:35 AM 4.6 °F - -1.5 °F 76% 30.35 in 10.0 mi Calm Calm - N/A   Overcast
7:55 AM 4.6 °F -2.5 °F -1.3 °F 76% 30.34 in 10.0 mi East 3.5 mph - N/A   Overcast
8:15 AM 4.6 °F -2.5 °F -1.5 °F 76% 30.33 in 10.0 mi East 3.5 mph - N/A   Overcast
8:35 AM 4.8 °F -4.3 °F -1.1 °F 76% 30.35 in 10.0 mi East 4.6 mph - N/A   Overcast
8:55 AM 4.8 °F -4.3 °F -1.1 °F 76% 30.35 in 10.0 mi SE 4.6 mph - N/A   Overcast
9:15 AM 4.8 °F -2.3 °F -1.1 °F 76% 30.35 in 10.0 mi ESE 3.5 mph - N/A   Overcast
9:35 AM 5.2 °F -5.4 °F -1.3 °F 75% 30.33 in 10.0 mi ESE 5.8 mph - N/A   Overcast
9:55 AM 5.7 °F -4.8 °F -1.1 °F 73% 30.33 in 10.0 mi SE 5.8 mph - N/A   Overcast
10:15 AM 5.9 °F -1.1 °F -0.8 °F 74% 30.35 in 10.0 mi SE 3.5 mph - N/A   Overcast
10:35 AM 6.1 °F - -0.4 °F 75% 30.35 in 10.0 mi Calm Calm - N/A   Overcast
10:55 AM 7.2 °F 0.3 °F -0.0 °F 72% 30.33 in 10.0 mi South 3.5 mph - N/A   Mostly Cloudy
11:15 AM 8.2 °F -1.8 °F 1.0 °F 72% 30.32 in 10.0 mi SSE 5.8 mph - N/A   Mostly Cloudy
11:35 AM 9.3 °F -0.5 °F 2.3 °F 73% 30.32 in 10.0 mi SSE 5.8 mph - N/A   Scattered Clouds
11:55 AM 10.2 °F 0.6 °F 2.3 °F 70% 30.31 in 10.0 mi South 5.8 mph - N/A   Scattered Clouds
12:15 PM 10.4 °F -0.4 °F 2.8 °F 72% 30.29 in 7.0 mi SSE 6.9 mph - N/A   Scattered Clouds
12:35 PM 10.8 °F 0.0 °F 2.8 °F 70% 30.28 in 7.0 mi SSE 6.9 mph - N/A   Overcast
12:55 PM 11.5 °F -0.2 °F 4.1 °F 72% 30.27 in 7.0 mi South 8.1 mph - N/A   Overcast
1:15 PM 12.7 °F 1.4 °F 5.4 °F 72% 30.24 in 7.0 mi South 8.1 mph - N/A Snow Light Snow
1:35 PM 13.8 °F 1.8 °F 6.1 °F 71% 30.23 in 10.0 mi South 9.2 mph - N/A   Scattered Clouds
1:55 PM 13.8 °F 1.8 °F 6.6 °F 73% 30.22 in 7.0 mi South 9.2 mph - N/A Snow Light Snow
2:15 PM 14.9 °F 1.6 °F 7.7 °F 73% 30.21 in 10.0 mi South 11.5 mph - N/A Snow Light Snow
2:35 PM 15.4 °F 3.0 °F 8.2 °F 73% 30.20 in 7.0 mi South 10.4 mph - N/A Snow Light Snow
2:55 PM 16.7 °F 3.2 °F 9.3 °F 73% 30.18 in 5.0 mi South 12.7 mph - N/A Snow Light Snow
3:15 PM 17.8 °F 5.9 °F 11.1 °F 75% 30.16 in 7.0 mi SSE 10.4 mph - N/A Snow Light Snow
3:35 PM 18.0 °F 5.4 °F 11.1 °F 75% 30.15 in 10.0 mi SSE 11.5 mph - N/A Snow Light Snow
3:55 PM 18.5 °F 6.8 °F 12.4 °F 77% 30.16 in 10.0 mi SSE 10.4 mph - N/A Snow Light Snow
4:15 PM 19.8 °F 7.7 °F 13.6 °F 77% 30.14 in 10.0 mi SSE 11.5 mph - N/A Snow Light Snow
4:35 PM 20.1 °F 7.5 °F 14.0 °F 77% 30.14 in 10.0 mi SSE 12.7 mph - N/A Snow Light Snow
4:55 PM 20.3 °F 7.7 °F 14.7 °F 79% 30.15 in 10.0 mi SSE 12.7 mph - N/A   Overcast
5:15 PM 20.3 °F 9.0 °F 14.4 °F 78% 30.15 in 10.0 mi SSE 10.4 mph - N/A   Overcast
5:35 PM 21.2 °F 11.7 °F 14.9 °F 77% 30.14 in 10.0 mi SE 8.1 mph - N/A   Overcast
5:55 PM 22.5 °F 10.5 °F 15.6 °F 75% 30.13 in 10.0 mi South 12.7 mph - N/A   Overcast
6:15 PM 22.5 °F 11.1 °F 15.6 °F 75% 30.13 in 10.0 mi SSE 11.5 mph - N/A   Overcast
6:35 PM 22.3 °F 10.8 °F 15.8 °F 76% 30.12 in 10.0 mi SSE 11.5 mph - N/A   Overcast
6:55 PM 21.9 °F 11.0 °F 15.4 °F 76% 30.13 in 10.0 mi South 10.4 mph - N/A   Mostly Cloudy
7:15 PM 21.6 °F 10.6 °F 15.1 °F 76% 30.12 in 10.0 mi South 10.4 mph - N/A   Scattered Clouds
7:35 PM 20.8 °F 8.4 °F 14.5 °F 77% 30.12 in 10.0 mi South 12.7 mph - N/A   Clear
7:55 PM 20.7 °F 9.5 °F 14.4 °F 77% 30.12 in 10.0 mi South 10.4 mph - N/A   Scattered Clouds
8:15 PM 20.3 °F 7.7 °F 14.2 °F 77% 30.12 in 10.0 mi SSE 12.7 mph - N/A   Mostly Cloudy
8:35 PM 20.1 °F 7.5 °F 14.2 °F 78% 30.13 in 10.0 mi SSE 12.7 mph - N/A   Overcast
8:55 PM 19.9 °F 6.2 °F 14.2 °F 78% 30.13 in 10.0 mi South 15.0 mph - N/A   Mostly Cloudy
9:15 PM 19.4 °F 6.6 °F 14.0 °F 80% 30.12 in 10.0 mi SSE 12.7 mph 17.3 mph N/A   Mostly Cloudy
9:35 PM 19.4 °F 6.6 °F 14.0 °F 80% 30.11 in 10.0 mi SSE 12.7 mph - N/A   Mostly Cloudy
9:55 PM 18.9 °F 6.5 °F 13.8 °F 81% 30.11 in 10.0 mi SSE 11.5 mph - N/A   Overcast
10:15 PM 18.5 °F 3.8 °F 13.8 °F 82% 30.11 in 10.0 mi South 16.1 mph - N/A   Overcast
10:35 PM 18.3 °F 3.6 °F 13.6 °F 82% 30.12 in 10.0 mi South 16.1 mph 20.7 mph N/A   Overcast
10:55 PM 18.5 °F 4.9 °F 14.0 °F 83% 30.12 in 10.0 mi South 13.8 mph - N/A   Overcast
11:15 PM 18.5 °F 4.9 °F 14.0 °F 83% 30.11 in 10.0 mi SSE 13.8 mph 19.6 mph N/A   Overcast
11:35 PM 18.0 °F 4.8 °F 13.8 °F 84% 30.09 in 10.0 mi SSE 12.7 mph - N/A   Overcast
11:55 PM 16.7 °F 3.2 °F 12.9 °F 85% 30.09 in 10.0 mi SSE 12.7 mph - N/A   Scattered Clouds